Content
SEND FEEDBACK

Daily
Averages
Monthly
Summary
Canada

ALTAWAN, ALBERTA


Home > North America > Canada > Alberta
Elevation: 3100 feet     Latitude: 49 14N     Longitude: 110 00W

WEATHER
 
SELECT A DAY
Number of Records: 140,639;   Date Range: 1/1/95 - 10/21/14
 
SHARE

PRINT THIS DATA

[ ← Previous Day ]
WEATHER ALMANAC - JANUARY 31, 2013
[ Next Day → ]
[ °C ]   °F
Weather ElementAverageHighLow
Temperature-0.5 °F5.4 °F (11:00 pm)-7.6 °F (1:00 am)
Dewpoint-3.6 °F3 °F (11:00 pm)-11.6 °F (1:00 am)
Humidity85.6 %90 % (2:00 pm)73 % (5:00 am)
Barometer30.28 in30.42 in (3:00 am)30.11 in (11:00 pm)
Wind Speed8.6 mph13.8 mph (1:00 am)
Weather ElementAverage
Wind DirectionSSE (158.5 °)

Weather ElementTotal
Precipitation---
Heating Degree Days66.1 (Base 65)
Averaged from 27 records on January 31, 2013
WEATHER CONDITIONS BREAKOUT
WIND DIRECTION BREAKOUT
WEATHER BY HOUR - JANUARY 31, 2013
[ °C ]   °F
Local TimeTemperatureDewpointHumidityBarometerVisibilityWind DirectionWind SpeedGust SpeedPrecipitationEventsConditions
1:00 AM-7.6 °F-11.6 °F83 %30.40 inWNW (300°)13.8 mph
2:00 AM-7.6 °F-11.6 °F83 %30.40 inWNW (290°)11.5 mph
3:00 AM-6.9 °F-10.8 °F83 %30.42 inWNW (300°)11.5 mph
4:00 AM-6.0 °F-9.8 °F84 %30.42 inNW (310°)10.4 mph
5:00 AM-5.0 °F-9.0 °F73 %30.42 inSW (220°)2.3 mph
5:00 AM-5.4 °F-9.2 °F84 %30.42 inSW (220°)2.3 mph
6:00 AM-4.9 °F-8.7 °F84 %30.39 inWest (260°)1.2 mph
7:00 AM-4.4 °F-8.0 °F84 %30.38 inSSE (150°)4.6 mph
8:00 AM-3.5 °F-6.9 °F85 %30.37 inSE (130°)9.2 mph
9:00 AM-2.7 °F-6.2 °F85 %30.36 inESE (120°)11.5 mph
10:00 AM-1.8 °F-5.1 °F86 %30.35 inESE (120°)10.4 mph
11:00 AM-1.0 °F-4.0 °F81 %30.32 inSE (130°)10.4 mph
11:00 AM-0.6 °F-3.8 °F86 %30.32 inSE (130°)10.4 mph
12:00 PM0.7 °F-2.0 °F88 %30.30 inEast (100°)13.8 mph
1:00 PM1.8 °F-0.9 °F88 %30.27 inEast (90°)13.8 mph
2:00 PM3.7 °F1.4 °F90 %30.24 inEast (90°)11.5 mph
3:00 PM3.0 °F0.3 °F88 %30.22 inEast (90°)11.5 mph
4:00 PM3.2 °F0.5 °F89 %30.22 inEast (90°)11.5 mph
5:00 PM2.0 °F-1.0 °F83 %30.19 inEast (90°)11.5 mph
5:00 PM2.3 °F-0.6 °F88 %30.19 inEast (90°)11.5 mph
6:00 PM2.8 °F0.0 °F88 %30.18 inEast (90°)10.4 mph
7:00 PM3.2 °F0.3 °F88 %30.17 inEast (80°)9.2 mph
8:00 PM3.0 °F0.1 °F88 %30.15 inEast (90°)8.1 mph
9:00 PM3.9 °F1.2 °F89 %30.13 inESE (110°)4.6 mph
10:00 PM4.3 °F1.6 °F89 %30.12 inEast (90°)2.3 mph
11:00 PM5.0 °F3.0 °F86 %30.11 inWSW (250°)1.2 mph
11:00 PM5.4 °F2.8 °F89 %30.11 inWSW (250°)1.2 mph
Hourly data recorded from CWOE, located miles away from Altawan, Alberta







STORIES FROM OUR PARTNERS